Location: Fleys
(47.8149°N, 3.8620°E)
Time: 08:05:35
(UTC+00:00)

Daily predictions for brighter satellites

Satellite Brightness Start Highest point End
(mag) Time Altitude Azimuth Time Altitude Azimuth Time Altitude Azimuth
NOSS 2-2 (C) 4.5 16:50:57 10° NW 16:56:19 71° NE 17:03:50 10° SE
CZ-4C R/B 4.1 16:52:55 10° NW 16:57:43 22° N 17:03:09 10° ENE
Cosmos 2227 Rocket 2.6 16:53:02 10° NNW 16:58:27 44° NE 17:03:51 10° SE
Cosmos 1908 3.9 16:55:38 10° SSW 16:59:26 60° W 17:03:17 10° N
Cosmos 2263 Rocket 4.0 16:56:52 10° N 16:59:29 13° NNE 17:02:06 10° ENE
Cosmos 1892 4.0 16:56:33 10° NNE 16:59:30 20° ENE 17:02:27 10° ESE
Cosmos 1110 Rocket 4.0 16:55:17 10° SSW 17:00:32 83° ESE 17:05:46 10° NNE
Cosmos 1939 Rocket 3.8 16:58:41 10° ESE 17:01:58 26° ENE 17:05:14 10° N
Cosmos 1302 Rocket 4.4 16:57:41 10° S 17:02:37 42° ESE 17:07:36 10° NE
USA 307 3.3 17:01:22 10° WNW 17:05:35 50° NNE 17:09:45 10° E
H-2A R/B 2.2 17:01:55 10° NNE 17:06:05 76° WNW 17:10:10 10° SSW
COSMO-SKYMED 1 3.6 17:04:10 10° NE 17:07:45 24° E 17:11:18 10° SSE
Envisat 3.7 17:03:49 10° S 17:08:50 62° WSW 17:13:54 10° NNW
Landsat 5 4.1 17:05:28 10° N 17:09:17 56° WNW 17:13:12 10° SSW
USA 308 3.2 17:06:21 10° WNW 17:10:34 52° NNE 17:14:46 10° E
Cosmos 1300 2.7 17:06:53 10° S 17:10:36 58° E 17:14:23 10° NNE
Cosmos 1486 Rocket 4.4 17:06:51 10° NNW 17:11:59 44° ENE 17:17:03 10° SE
Cosmos 1400 Rocket 3.4 17:08:29 10° SSE 17:12:18 38° E 17:16:06 10° NNE
CZ-4B R/B 1.5 17:10:29 10° NNE 17:13:35 46° E 17:16:36 10° S
Cosmos 1697 Rocket 3.8 17:09:29 10° SSE 17:13:44 23° ESE 17:18:01 10° NE
Cosmos 1825 Rocket 3.8 17:09:44 10° NNW 17:14:11 76° W 17:18:35 10° S
Cosmos 1825 3.9 17:13:03 10° NE 17:15:03 14° ENE 17:17:03 10° E
ERS-2 2.1 17:13:48 10° NNE 17:17:25 61° ESE 17:21:01 10° S
Helios 1A Rocket 3.8 17:15:46 10° SE 17:19:18 28° ENE 17:22:50 10° N
BREEZE-M TANK 3.6 17:10:45 10° W 17:21:30 71° S 17:25:00 11° E
YAOGAN 1 3.7 17:18:19 10° ESE 17:21:45 23° ENE 17:25:11 10° NNE
Cosmos 1340 2.7 17:22:45 10° N 17:26:31 58° ENE 17:30:14 10° SSE
NOAA 11 4.1 17:21:08 10° SSE 17:26:33 78° ENE 17:32:00 10° NNW
CZ-2D R/B 3.9 17:23:49 10° SE 17:27:16 33° ENE 17:30:43 10° N
Cosmos 44 3.4 17:22:55 10° SW 17:27:26 73° NW 17:32:17 10° NE
Okean O Rocket 2.4 17:24:12 10° S 17:28:30 57° W 17:32:47 10° NNW
Cosmos 2228 3.4 17:24:44 10° SSW 17:28:58 67° W 17:33:15 10° N
Cosmos 1726 Rocket 3.6 17:25:26 10° S 17:29:47 88° W 17:34:13 10° N
CZ-4 R/B 2.1 17:26:47 10° SE 17:30:07 28° ENE 17:33:26 10° N
SL-4 R/B 2.1 17:30:34 10° WNW 17:34:02 49° N 17:36:33 18° E
Cosmos 1346 Rocket 3.3 17:30:34 10° N 17:34:17 36° ENE 17:37:59 10° SE
Cosmos 2058 3.4 17:31:18 10° N 17:35:05 35° ENE 17:38:51 10° SE
Aureole 3 2.5 17:32:30 10° S 17:35:31 61° E 17:38:29 10° NNE
Cosmos 1980 Rocket 3.5 17:33:39 10° SE 17:37:27 19° E 17:39:23 16° ENE
Cosmos 2297 Rocket 2.3 17:32:24 10° NNW 17:38:06 85° WSW 17:43:46 10° SSE
In-Cosmos 22 Rocket 4.0 17:34:29 10° N 17:39:52 74° ENE 17:45:21 10° SSE
PSLV R/B 4.4 17:36:01 10° NNE 17:39:58 40° E 17:43:51 10° SSE
CZ-2C R/B 3.6 17:38:27 10° SE 17:43:51 43° ENE 17:49:05 10° N
Cosmos 1315 Rocket 3.5 17:42:36 10° SSE 17:46:06 31° E 17:49:41 10° NNE
Cosmos 1553 Rocket 4.0 17:43:49 10° S 17:50:06 68° E 17:56:18 10° NNE
Cosmos 220 Rocket 4.3 17:47:31 10° S 17:51:42 46° ESE 17:55:51 11° NNE
Meteor 2-15 4.5 17:47:45 10° S 17:53:45 58° E 17:59:44 10° NNE
BREEZE-M R/B 3.4 17:50:36 10° WNW 17:54:19 76° N 17:59:00 21° E
USA 305 2.8 17:51:09 10° WNW 17:55:29 85° NNE 17:58:11 22° ESE
Meteor 2-10 Rocket 3.6 17:50:48 10° S 17:55:54 53° E 18:00:53 10° NNE
SKYMED 2 3.5 17:51:42 10° NNE 17:56:04 73° ESE 18:00:23 10° S
Cosmos 1455 2.5 17:54:23 10° SSE 17:57:56 41° E 18:01:33 10° NNE
NOSS 3-4 (A) 4.2 17:54:45 10° NW 18:01:15 45° NE 18:05:39 23° E
NOSS 3-4 (C) 4.2 17:54:51 10° NW 18:01:21 45° NE 18:05:43 23° E
USA 306 2.8 17:57:40 10° WNW 18:01:59 88° SSW 18:04:25 25° ESE
SeaSat 1 3.4 18:00:38 24° ENE 18:02:00 28° NE 18:06:10 10° N
H-2A R/B 2.4 17:59:11 10° SE 18:04:18 45° ENE 18:09:28 10° N
Okean-O 2.5 18:01:13 10° SSE 18:05:38 75° ENE 18:10:04 10° N
FALCON 9 DEB 3.7 18:03:50 10° W 18:06:57 45° NNW 18:07:57 33° NNE
MOS 1 Rocket 3.8 18:04:06 10° NNE 18:08:31 37° E 18:13:09 10° SSE
FALCON 9 DEB 3.7 18:05:49 10° W 18:08:54 43° NNW 18:09:47 33° NNE
Cosmos 2278 4.2 18:05:34 10° S 18:10:40 35° ESE 18:12:45 27° ENE
NOSS 3-3 (A) 3.9 18:05:39 10° SSW 18:11:23 63° ESE 18:16:10 18° NE
NOSS 3-3 (C) 3.9 18:05:47 10° SSW 18:11:30 62° ESE 18:16:14 19° NE
Cosmos 2219 4.3 18:06:04 10° NW 18:11:34 46° WSW 18:17:00 10° S
Aureole 3 Rocket 3.9 18:07:26 10° SSW 18:11:37 61° WNW 18:17:31 10° N
USA 215 3.9 18:10:10 23° ENE 18:13:52 42° N 18:19:56 10° WNW
ATLAS 5 CENTAUR R/B 4.1 18:12:23 10° NNW 18:14:54 14° N 18:17:34 10° NNE
Cosmos 1745 Rocket 4.0 18:09:15 10° N 18:15:35 85° E 18:21:56 10° S
Lacrosse 5 3.0 18:14:03 10° NW 18:18:34 31° N 18:20:11 26° NE
Cosmos 1408 2.6 18:15:04 10° N 18:18:45 81° W 18:22:25 10° S
Cosmos 44 Rocket 3.6 18:14:27 10° S 18:18:58 44° ESE 18:19:57 39° E
Cosmos 2082 3.7 18:13:13 10° NNW 18:18:59 87° WSW 18:24:43 10° SSE
Meteor 2-3 Rocket 4.5 18:14:19 10° N 18:19:24 31° ENE 18:19:36 31° ENE
GEOS 3 Rocket 3.9 18:17:20 32° E 18:19:37 53° NE 18:24:52 10° NNW
ARGOS 3.4 18:17:21 25° SE 18:20:09 46° ENE 18:25:19 10° N
ATLAS 2AS CENTAUR R/B 3.2 18:16:00 10° NW 18:23:22 48° NE 18:26:17 32° E
FALCON 9 DEB 3.8 18:20:36 10° W 18:23:41 39° NNW 18:24:00 38° N
Cosmos 1656 4.1 18:18:15 10° SW 18:23:46 63° WNW 18:29:25 10° NNE
ERBS 4.1 18:21:24 10° NW 18:23:42 20° N 18:23:42 20° N
Cosmos 968 Rocket 4.3 18:19:07 10° NNW 18:24:11 52° WSW 18:29:11 10° S
Cosmos 1689 Rocket 3.3 18:22:01 10° N 18:24:47 41° WNW 18:27:31 10° SW
Cosmos 1076 Rocket 3.5 18:28:52 10° NNW 18:33:08 79° W 18:37:23 10° S
FALCON 9 DEB 4.1 18:30:15 10° W 18:33:08 36° NNW 18:33:08 36° NNW
FALCON 9 DEB 3.3 18:29:54 10° WNW 18:32:58 64° NNW 18:32:58 64° NNW
Cosmos 2369 3.6 18:29:18 10° SSW 18:35:00 79° ESE 18:39:11 19° NNE
Cosmos 1892 4.4 18:31:45 10° NNW 18:35:18 35° W 18:38:50 10° SSW
SJ 16-02 3.8 18:33:30 10° NNE 18:33:43 11° NNE 18:33:43 11° NNE
Cosmos 1777 Rocket 4.1 18:33:19 10° NNW 18:38:24 50° ENE 18:38:35 49° ENE
CSL-04 Rocket 3.6 18:35:57 10° SSE 18:41:30 86° ENE 18:47:02 10° NNW
Cosmos 2227 Rocket 3.8 18:37:19 10° NW 18:42:23 34° WSW 18:47:25 10° S
COSMO-SKYMED 1 4.0 18:40:00 10° N 18:44:01 37° WNW 18:48:01 10° SW
Cosmos 2263 Rocket 2.4 18:39:23 10° NNW 18:44:55 48° NE 18:45:08 48° ENE
Cosmos 1709 Rocket 3.9 18:38:40 10° N 18:45:06 83° E 18:51:29 10° S
USA 307 3.6 18:41:32 10° WNW 18:45:40 48° SW 18:46:28 42° S
CZ-4C R/B 3.4 18:41:43 10° NW 18:48:08 41° NE 18:49:38 37° ENE
USA 308 3.7 18:46:31 10° WNW 18:50:37 45° SW 18:51:15 41° SSW
Cosmos 1825 2.9 18:47:12 10° NNW 18:50:54 52° W 18:52:23 31° SSW
Cosmos 1697 Rocket 3.0 18:51:39 10° SW 18:57:13 64° WNW 19:01:26 18° NNE
YAOGAN 1 3.8 18:53:32 10° S 18:57:37 41° W 19:01:45 10° NNW
Cosmos 883 Rocket 4.4 18:53:51 10° S 19:00:01 83° W 19:06:11 10° N
Cosmos 1812 Rocket 4.4 19:00:41 10° SSW 19:04:56 49° WNW 19:09:13 10° N
CZ-4 R/B 3.4 19:01:50 10° SSW 19:05:07 26° W 19:08:25 10° NW
Atlas Centaur 2 4.5 19:04:28 10° SW 19:10:34 22° S 19:12:40 20° SSE
Cosmos 2315 Rocket 3.9 19:04:37 10° S 19:10:49 84° W 19:17:04 10° N
SL-4 R/B 3.5 19:10:04 10° WNW 19:12:08 31° W 19:12:08 31° W
Cosmos 2151 4.2 19:11:22 10° NNW 19:14:07 37° NW 19:14:07 37° NW
Cosmos 1980 Rocket 2.2 19:15:11 10° SSW 19:20:48 75° WNW 19:21:12 71° NNW
Ariane Rocket 4.2 19:33:54 34° NNW 19:33:54 34° NNW 19:36:44 10° NNW
SeaSat 1 3.4 19:40:26 45° WNW 19:40:26 45° WNW 19:44:08 10° NW
H-2A R/B 3.8 19:39:06 10° SSW 19:43:50 30° W 19:48:39 10° NNW
NOSS 3-4 (A) 4.2 19:45:37 10° NW 19:52:30 59° WSW 19:53:08 57° SW
NOSS 3-4 (C) 4.1 19:45:43 10° NW 19:52:36 59° WSW 19:53:11 58° SW
USA 215 3.6 19:57:31 60° NNW 19:57:31 60° NNW 20:02:54 10° NW
ATLAS 5 CENTAUR R/B 4.3 19:57:38 10° NNW 19:59:06 16° N 19:59:06 16° N
Lacrosse 5 3.8 19:57:11 10° NW 19:59:23 26° NW 19:59:23 26° NW
ATLAS 2AS CENTAUR R/B 3.4 20:07:18 10° NW 20:13:44 51° W 20:13:44 51° W
Cosmos 2263 Rocket 4.1 20:23:41 10° NW 20:26:50 26° WNW 20:26:50 26° WNW
CZ-4C R/B 3.7 20:30:05 10° NW 20:34:49 46° NW 20:34:49 46° NW
